{"data":{"norad_id":66338,"epoch":"2026-05-24T23:35:00.363840Z","epoch_age_seconds":73734,"freshness":"FRESH","line1":"1 66338U 25253V   26144.98264310  .00014227  00000+0  52528-3 0  9993","line2":"2 66338  43.0018 141.5499 0001458 269.9509  90.1176 15.27594351 31915","mean_motion":15.27594351,"eccentricity":0.0001458,"inclination_deg":43.0018,"raan_deg":141.5499,"arg_perigee_deg":269.9509,"mean_anomaly_deg":90.1176,"bstar":0.00052528,"rev_number":3191,"period_min":94.265863123763,"perigee_km":482.0057696518,"apogee_km":484.00647898685,"semimajor_km":6861.1431243193,"source":"CELESTRAK","updated_at":"2026-05-25T13:38:21.170853Z"}}